Location: Baia Mare
(47.6567°N, 23.5850°E)
Time: 03:16:11
(UTC+02:00)

ISS - Pass Details

Date: 08 February 2018
Orbit: 403 x 407 km, 51.6° (Epoch: 22 February)

Event Time Altitude Azimuth Distance (km) Brightness Sun altitude
Rises 18:13:03 0° 291° (WNW) 2,321 1.0 -6.5°
Reaches altitude 10° 18:15:10 10° 296° (WNW) 1,460 -0.2 -6.9°
Maximum altitude 18:18:22 51° 14° (NNE) 515 -3.5 -7.4°
Drops below altitude 10° 18:21:35 10° 92° (E) 1,458 -1.6 -7.9°
Enters shadow 18:21:36 10° 92° (E) 1,468 -1.6 -7.9°
